Stations météo

réclame
Mon MeteoGroup
Westdorpe aws, Pays-Bas (6319): Température de l'air & dewpoint: 13.06.2018 16:00:00 - 19.06.2018 16:00:00 (CEST)Westdorpe aws, Pays-Bas (6319): Température de l'air 5cm: 13.06.2018 16:00:00 - 19.06.2018 16:00:00 (CEST)Westdorpe aws, Pays-Bas (6319): Vitesse du vent & gusts: 13.06.2018 16:00:00 - 19.06.2018 16:00:00 (CEST)Westdorpe aws, Pays-Bas (6319): Direction du vent: 13.06.2018 16:00:00 - 19.06.2018 16:00:00 (CEST)Westdorpe aws, Pays-Bas (6319): reduced air pressure: 13.06.2018 16:00:00 - 19.06.2018 16:00:00 (CEST)Westdorpe aws, Pays-Bas (6319): visibility: 13.06.2018 16:00:00 - 19.06.2018 16:00:00 (CEST)Westdorpe aws, Pays-Bas (6319): Quantités de précipitations: 13.06.2018 16:00:00 - 19.06.2018 16:00:00 (CEST)
Date & Time tt [°C] td [°C] tt 5cm [°C] ff [km/h] ff [knt] fx [km/h] fx [knt] dd ppp [hPa] vv [km] rr [mm]
19.06.2018 16:00:00 19,4 16,2 20,1 11 6 14 8 W 1024,6 19 0,0
19.06.2018 15:00:00 19,4 15,9 20,8 11 6 18 10 W 1024,7 26 0,0
19.06.2018 14:00:00 19,0 16,0 19,8 11 6 14 8 WSW 1024,8 14 0,0
19.06.2018 13:00:00 18,5 16,0 19,2 7 4 18 10 W 1024,7 12 0,0
19.06.2018 12:00:00 18,2 15,9 18,3 11 6 22 12 W 1024,4 13 0,0
19.06.2018 11:00:00 18,5 15,9 19,4 14 8 22 12 WSW 1024,3 15 0,0
19.06.2018 10:00:00 17,8 15,4 18,5 18 10 22 12 WSW 1024,1 13 0,0
19.06.2018 09:00:00 17,6 15,2 17,8 18 10 25 14 WSW 1023,6 18 0,0
19.06.2018 08:00:00 17,1 14,9 17,1 14 8 29 16 WSW 1023,1 17 0,0
19.06.2018 07:00:00 16,6 14,8 16,3 14 8 25 14 SW 1022,7 16 0,0
19.06.2018 06:00:00 16,2 14,5 15,8 14 8 25 14 SW 1022,4 15 0,0
19.06.2018 05:00:00 15,8 14,3 15,3 14 8 25 14 WSW 1021,9 14 0,0
19.06.2018 04:00:00 15,0 13,9 14,3 14 8 29 16 WSW 1021,7 14 0,0
19.06.2018 03:00:00 14,5 13,4 13,7 18 10 29 16 SW 1021,6 15 0,0
19.06.2018 02:00:00 14,0 12,4 13,3 18 10 29 16 SW 1021,2 21 0,0
19.06.2018 01:00:00 14,5 11,6 13,6 18 10 29 16 SW 1021,3 27 0,0
19.06.2018 00:00:00 14,7 11,2 13,9 14 8 29 16 SW 1021,6 42 0,0
18.06.2018 23:00:00 15,7 11,1 14,6 18 10 29 16 SW 1021,6 48 0,0
18.06.2018 22:00:00 16,3 11,9 15,3 14 8 29 16 SW 1021,2 50 0,0
18.06.2018 21:00:00 18,0 12,0 17,7 18 10 36 19 SW 1020,8 46 0,0
18.06.2018 20:00:00 18,3 12,0 18,9 22 12 36 19 SW 1020,7 48 0,0
18.06.2018 19:00:00 19,0 12,3 19,5 25 14 40 21 SW 1020,7 42 0,0
18.06.2018 18:00:00 20,4 12,9 21,4 22 12 36 19 WSW 1020,5 40 0,0
18.06.2018 17:00:00 19,3 12,7 20,0 22 12 36 19 WSW 1020,9 37 0,0
18.06.2018 16:00:00 17,9 12,7 18,7 22 12 40 21 WSW 1021,3 46 0,0
18.06.2018 15:00:00 18,0 13,0 18,7 25 14 43 23 SW 1020,9 45 0,0
18.06.2018 14:00:00 18,9 13,1 19,5 29 16 43 23 WSW 1020,7 44 0,0
18.06.2018 13:00:00 19,4 14,5 19,3 22 12 40 21 WSW 1020,3 43 0,0
18.06.2018 12:00:00 18,6 13,9 18,6 22 12 36 19 WSW 1020,1 49 0,0
18.06.2018 11:00:00 18,3 14,9 18,5 18 10 32 18 WSW 1019,9 46 0,0
18.06.2018 10:00:00 17,6 14,8 17,8 18 10 32 18 SW 1019,6 45 0,0
18.06.2018 09:00:00 16,8 14,4 17,1 18 10 29 16 SW 1019,2 27 0,0
18.06.2018 08:00:00 16,3 14,1 16,4 18 10 36 19 SW 1019,0 29 0,0
18.06.2018 07:00:00 16,1 13,8 15,8 18 10 32 18 SW 1018,9 19 0,0
18.06.2018 06:00:00 15,7 13,2 15,4 18 10 32 18 SSW 1019,0 21 0,0
18.06.2018 05:00:00 15,5 12,5 15,1 18 10 29 16 SW 1018,7 37 0,0
18.06.2018 04:00:00 16,1 12,1 15,8 18 10 29 16 SW 1018,7 38 0,0
18.06.2018 03:00:00 16,2 12,0 15,8 22 12 32 18 SW 1019,1 40 0,0
18.06.2018 02:00:00 16,0 11,8 15,6 18 10 32 18 SW 1019,2 39 0,0
18.06.2018 01:00:00 15,8 11,3 15,5 22 12 36 19 SW 1019,7 48 0,0
18.06.2018 00:00:00 15,9 10,9 15,5 22 12 36 19 SW 1019,6 47 0,0
17.06.2018 23:00:00 15,6 10,7 15,3 22 12 40 21 SW 1019,9 46 0,0
17.06.2018 22:00:00 16,5 9,8 16,1 11 6 25 14 SW 1019,5 44 0,0
17.06.2018 21:00:00 17,5 9,9 17,1 14 8 29 16 WSW 1019,3 44 0,0
17.06.2018 20:00:00 17,4 9,3 17,4 22 12 32 18 WSW 1019,1 44 0,0
17.06.2018 19:00:00 18,3 8,9 18,6 22 12 36 19 WSW 1018,7 38 0,0
17.06.2018 18:00:00 18,3 9,6 18,6 18 10 29 16 WSW 1018,6 41 0,0
17.06.2018 17:00:00 17,9 10,7 18,2 14 8 29 16 WSW 1018,7 40 0,0
17.06.2018 16:00:00 17,6 9,6 17,5 18 10 32 18 W 1018,6 44 0,0
17.06.2018 15:00:00 17,8 10,1 18,7 25 14 32 18 WSW 1018,4 36 0,0
17.06.2018 14:00:00 17,8 9,5 19,4 22 12 32 18 WSW 1018,1 38 0,0
17.06.2018 13:00:00 17,0 9,7 17,9 22 12 32 18 WSW 1018,0 38 0,0
17.06.2018 12:00:00 16,3 9,8 16,9 22 12 32 18 WSW 1017,8 38 0,0
17.06.2018 11:00:00 16,1 9,8 16,6 22 12 32 18 SW 1017,7 32 0,0
17.06.2018 10:00:00 15,5 10,9 16,4 22 12 32 18 SW 1017,6 25 0,0
17.06.2018 09:00:00 15,2 11,3 15,6 18 10 29 16 SW 1017,1 23 0,0
17.06.2018 08:00:00 14,4 10,9 14,5 18 10 29 16 SW 1016,5 24 0,0
17.06.2018 07:00:00 13,8 10,6 13,7 14 8 29 16 SW 1016,3 22 0,0
17.06.2018 06:00:00 13,4 10,0 12,6 18 10 29 16 SW 1016,2 26 0,0
17.06.2018 05:00:00 13,5 10,1 12,6 18 10 29 16 SW 1016,1 29 0,0
17.06.2018 04:00:00 14,0 10,1 13,1 18 10 32 18 SW 1015,9 38 0,0
17.06.2018 03:00:00 14,1 10,8 13,1 18 10 29 16 SW 1015,6 42 0,0
17.06.2018 02:00:00 14,5 11,0 13,6 18 10 29 16 SW 1015,9 49 0,0
17.06.2018 01:00:00 15,2 10,5 14,4 18 10 32 18 SW 1015,6 48 0,0
17.06.2018 00:00:00 16,0 10,1 15,2 14 8 29 16 SW 1015,6 49 0,0
16.06.2018 23:00:00 15,9 10,1 15,2 11 6 18 10 SW 1015,9 49 0,0
16.06.2018 22:00:00 16,6 9,3 15,6 14 8 36 19 WSW 1015,9 50 0,0
16.06.2018 21:00:00 17,9 8,6 17,7 22 12 40 21 WSW 1015,7 49 0,0
16.06.2018 20:00:00 18,9 8,5 18,4 22 12 36 19 WSW 1015,4 44 0,0
16.06.2018 19:00:00 20,4 8,5 20,6 22 12 36 19 SW 1015,2 46 0,0
16.06.2018 18:00:00 20,4 9,5 21,7 25 14 36 19 WSW 1015,4 43 0,0
16.06.2018 17:00:00 20,0 11,1 22,2 18 10 29 16 WNW 1015,2 37 0,0
16.06.2018 16:00:00 20,8 11,5 23,7 14 8 29 16 WNW 1015,1 30 0,0
16.06.2018 15:00:00 20,1 12,6 23,8 22 12 32 18 WNW 1015,1 30 0,0
16.06.2018 14:00:00 21,4 11,6 25,4 18 10 32 18 SW 1015,1 25 0,0
16.06.2018 13:00:00 20,2 10,8 24,3 22 12 32 18 SW 1015,4 31 0,0
16.06.2018 12:00:00 18,7 12,8 19,6 14 8 25 14 SW 1015,7 20 0,0
16.06.2018 11:00:00 16,4 12,0 17,6 14 8 25 14 SW 1016,0 20 0,0
16.06.2018 10:00:00 15,2 11,5 16,4 18 10 29 16 WSW 1015,9 20 0,0
16.06.2018 09:00:00 15,3 11,0 15,7 11 6 14 8 WSW 1015,5 21 0,0
16.06.2018 08:00:00 14,3 10,7 14,6 7 4 22 12 S 1015,4 18 0,0
16.06.2018 07:00:00 13,1 9,6 12,2 11 6 18 10 SW 1015,6 28 0,0
16.06.2018 06:00:00 11,8 8,6 10,1 11 6 14 8 SSW 1015,4 42 0,0
16.06.2018 05:00:00 12,3 8,8 10,3 7 4 14 8 SW 1015,7 26 0,0
16.06.2018 04:00:00 12,9 9,7 11,3 7 4 11 6 SSW 1015,7 27 0,0
16.06.2018 03:00:00 13,1 10,9 11,7 7 4 14 8 WSW 1016,0 21 0,0
16.06.2018 02:00:00 13,3 11,9 12,0 7 4 11 6 WSW 1016,4 11 0,0
16.06.2018 01:00:00 12,9 11,8 10,8 7 4 7 4 SSW 1016,3 11 0,0
16.06.2018 00:00:00 13,5 11,9 10,3 0 0 11 6 N 1016,4 11 0,0
15.06.2018 23:00:00 14,8 12,1 13,1 11 6 11 6 W 1016,5 15 0,0
15.06.2018 22:00:00 16,7 12,9 15,9 11 6 14 8 WNW 1016,4 15 0,0
15.06.2018 21:00:00 17,6 13,1 17,1 11 6 22 12 NW 1016,4 25 0,0
15.06.2018 20:00:00 19,7 12,8 20,1 14 8 29 16 NW 1016,3 27 0,0
15.06.2018 19:00:00 19,7 13,5 20,0 22 12 36 19 WNW 1016,3 17 0,0
15.06.2018 18:00:00 22,3 13,9 23,4 7 4 22 12 NNW 1016,0 19 0,0
15.06.2018 17:00:00 22,3 14,5 23,3 7 4 14 8 NNW 1015,9 18 0,0
15.06.2018 16:00:00 22,7 14,1 24,5 7 4 18 10 NNW 1016,2 16 0,0
15.06.2018 15:00:00 23,7 11,9 27,7 7 4 14 8 SSW 1016,4 22 0,0
15.06.2018 14:00:00 21,1 13,1 22,5 7 4 11 6 S 1016,4 25 0,0
15.06.2018 13:00:00 21,9 13,3 26,4 7 4 18 10 SSW 1016,7 18 0,0
15.06.2018 12:00:00 21,4 13,8 25,1 7 4 14 8 SSE 1016,7 18 0,0
15.06.2018 11:00:00 19,7 13,5 23,1 7 4 14 8 SSW 1016,8 13 0,0
15.06.2018 10:00:00 18,4 13,4 21,1 7 4 14 8 S 1016,9 15 0,0
15.06.2018 09:00:00 16,0 12,6 17,8 4 2 7 4 WSW 1016,7 12 0,0
15.06.2018 08:00:00 14,4 12,4 14,7 4 2 11 6 S 1016,5 12 0,0
15.06.2018 07:00:00 12,3 11,8 11,7 7 4 11 6 S 1016,1 11 0,0
15.06.2018 06:00:00 11,5 11,1 10,0 7 4 7 4 SSE 1016,1 10 0,0
15.06.2018 05:00:00 11,4 11,1 8,8 4 2 7 4 S 1016,0 10 0,0
15.06.2018 04:00:00 10,6 9,7 7,2 4 2 11 6 S 1015,9 11 0,0
15.06.2018 03:00:00 12,1 11,1 9,5 7 4 11 6 SSW 1015,8 14 0,0
15.06.2018 02:00:00 13,3 12,0 12,2 7 4 14 8 SW 1015,9 17 0,0
15.06.2018 01:00:00 13,6 12,2 12,2 11 6 14 8 SW 1016,1 22 0,0
15.06.2018 00:00:00 14,5 13,1 12,5 11 6 18 10 SW 1016,0 25 0,0
14.06.2018 23:00:00 14,6 13,9 10,8 4 2 11 6 SSW 1015,7 25 0,0
14.06.2018 22:00:00 15,5 14,0 13,5 7 4 18 10 WSW 1015,2 31 0,0
14.06.2018 21:00:00 17,2 14,5 17,1 14 8 25 14 SSW 1014,6 38 0,0
14.06.2018 20:00:00 16,9 14,6 17,1 14 8 25 14 SW 1014,4 38 0,0
14.06.2018 19:00:00 16,7 15,1 17,1 14 8 32 18 SW 1014,2 6 0,0
14.06.2018 18:00:00 17,8 13,5 18,4 25 14 40 21 WSW 1014,1 23 0,0
14.06.2018 17:00:00 17,8 13,1 17,8 18 10 36 19 SW 1013,8 25 0,0
14.06.2018 16:00:00 18,8 12,2 19,2 25 14 43 23 SW 1013,4 36 0,0
14.06.2018 15:00:00 19,5 11,9 20,0 25 14 40 21 SW 1013,7 38 0,0
14.06.2018 14:00:00 18,2 12,3 18,5 25 14 40 21 S 1013,5 36 0,0
14.06.2018 13:00:00 18,2 11,5 18,5 25 14 40 21 S 1013,7 40 0,0
14.06.2018 12:00:00 18,4 11,8 19,2 22 12 43 23 SSW 1013,8 23 0,0
14.06.2018 11:00:00 19,1 11,6 20,8 22 12 43 23 SSW 1013,9 29 0,0
14.06.2018 10:00:00 18,1 11,4 19,1 25 14 47 25 SSW 1013,9 30 0,0
14.06.2018 09:00:00 16,3 11,5 17,0 14 8 25 14 S 1014,1 33 0,0
14.06.2018 08:00:00 13,8 10,3 13,9 14 8 25 14 S 1014,3 32 0,0
14.06.2018 07:00:00 11,9 9,7 11,0 11 6 22 12 S 1014,7 22 0,0
14.06.2018 06:00:00 10,9 9,4 9,4 11 6 18 10 S 1015,0 17 0,0
14.06.2018 05:00:00 10,1 9,3 7,8 7 4 11 6 SSE 1015,4 14 0,0
14.06.2018 04:00:00 8,3 7,8 4,1 4 2 7 4 S 1015,9 13 0,0
14.06.2018 03:00:00 8,2 7,4 5,5 4 2 14 8 S 1016,5 19 0,0
14.06.2018 02:00:00 8,3 7,6 4,7 4 2 4 2 S 1016,9 20 0,0
14.06.2018 01:00:00 9,1 8,2 5,6 4 2 4 2 S 1017,0 21 0,0
14.06.2018 00:00:00 10,6 9,4 6,9 4 2 7 4 SSE 1017,4 33 0,0
13.06.2018 23:00:00 11,1 9,6 7,8 4 2 4 2 SSE 1017,5 49 0,0
13.06.2018 22:00:00 13,3 10,4 10,9 4 2 7 4 E 1017,5 49 0,0
13.06.2018 21:00:00 16,6 10,7 15,8 7 4 14 8 NW 1017,5 47 0,0
13.06.2018 20:00:00 17,9 9,9 18,5 11 6 18 10 N 1017,6 43 0,0
13.06.2018 19:00:00 18,9 9,3 20,6 11 6 18 10 NW 1017,7 45 0,0
13.06.2018 18:00:00 19,4 8,7 22,1 11 6 18 10 NW 1017,6 39 0,0
13.06.2018 17:00:00 17,8 8,8 18,4 7 4 22 12 NNE 1018,1 32 0,0
13.06.2018 16:00:00 19,0 7,6 21,1 11 6 25 14 N 1018,2 48 0,0

tt = Température de l'air
td = dewpoint
tt 5cm = Température de l'air 5cm
ff = Vitesse du vent
fx = gusts
dd = Direction du vent
ppp = reduced air pressure
vv = visibility
rr = Quantités de précipitations

stations d'obs. à proximité